FW8134 Weather Reports


Display with metric or nautical units.
time (UTC)temp
F
wind
direction
speed
MPH
gust
MPH
rain 1hr
in
rain 24hr
in
rain mn
in
humidity
%
barometer
mb
20260503005540 58 0.0 1.0 0.00 0.01 0.00 90 994.4
20260503004516 58 218 0.0 2.0 0.00 0.01 0.00 90 994.4
20260503003522 58 225 0.0 3.0 0.00 0.01 0.00 90 994.6
20260503002519 58 224 1.0 4.0 0.00 0.01 0.00 89 994.6
20260503001519 58 200 0.0 5.0 0.00 0.01 0.00 89 994.7
20260503000516 58 249 0.0 2.0 0.00 0.01 0.00 88 994.8
20260502235517 58 0.0 0.0 0.00 0.01 0.00 88 994.9
20260502234518 58 202 0.0 4.0 0.00 0.01 0.00 88 995.0
20260502233520 58 0.0 0.0 0.00 0.01 0.00 88 995.1
20260502232515 58 0.0 0.0 0.00 0.01 0.00 87 995.1
20260502231537 58 0.0 0.0 0.00 0.01 0.00 87 995.2
20260502230518 58 0.0 0.0 0.00 0.01 0.00 87 995.4
20260502225519 58 0.0 0.0 0.00 0.01 0.00 88 995.4
20260502224515 58 0.0 0.0 0.00 0.01 0.00 88 995.3
20260502223517 57 0.0 0.0 0.00 0.01 0.00 88 995.4
20260502222558 57 0.0 0.0 0.00 0.01 0.00 89 995.3
20260502221519 57 0.0 0.0 0.00 0.01 0.00 89 995.2
20260502220515 57 0.0 0.0 0.00 0.01 0.00 88 995.3
20260502215536 57 0.0 0.0 0.00 0.01 0.01 87 995.3
20260502214538 57 0.0 0.0 0.00 0.01 0.01 87 995.3
20260502213519 58 0.0 0.0 0.00 0.01 0.01 87 995.3
20260502212515 58 0.0 0.0 0.00 0.01 0.01 87 995.3
20260502211536 57 0.0 0.0 0.00 0.01 0.01 87 995.3
20260502210518 57 0.0 0.0 0.00 0.01 0.01 86 995.3
20260502205519 58 0.0 0.0 0.00 0.01 0.01 85 995.4
20260502204515 58 0.0 0.0 0.00 0.01 0.01 84 995.4
20260502203516 58 0.0 0.0 0.00 0.01 0.01 83 995.6
20260502202517 59 0.0 0.0 0.00 0.01 0.01 82 995.6
20260502201518 59 0.0 0.0 0.00 0.01 0.01 82 995.6
20260502200515 60 0.0 0.0 0.00 0.01 0.01 81 995.6
20260502195516 60 0.0 0.0 0.00 0.01 0.01 79 995.5
20260502194517 61 0.0 0.0 0.00 0.01 0.01 77 995.7
20260502193518 62 0.0 0.0 0.00 0.01 0.01 77 995.6
20260502192519 62 0.0 0.0 0.00 0.01 0.01 75 995.4
20260502191521 63 0.0 0.0 0.00 0.01 0.01 75 995.4
20260502190517 63 199 1.0 5.0 0.00 0.01 0.01 75 995.5
20260502185518 64 227 1.0 2.0 0.00 0.01 0.01 75 995.4
20260502184539 64 222 1.0 2.0 0.00 0.01 0.01 74 995.3
20260502183520 64 211 1.0 4.0 0.00 0.01 0.01 74 995.4
20260502182516 65 223 2.0 8.0 0.00 0.01 0.01 74 995.4
20260502181518 66 215 1.0 4.0 0.00 0.01 0.01 71 995.5
20260502180518 66 203 1.0 3.0 0.00 0.01 0.01 70 995.5
20260502170520 68 222 3.0 7.0 0.00 0.01 0.01 66 995.9
20260502163518 68 211 3.0 6.0 0.00 0.01 0.01 64 996.3
20260502162519 69 215 4.0 13.0 0.00 0.01 0.01 62 996.5
20260502161536 70 213 4.0 12.0 0.00 0.01 0.01 61 996.6
20260502160517 71 212 3.0 10.0 0.00 0.01 0.01 60 996.7
20260502151518 71 215 3.0 11.0 0.00 0.01 0.01 56 996.7
20260502150519 72 218 4.0 10.0 0.00 0.01 0.01 54 996.8
20260502130518 73 197 4.0 11.0 0.00 0.01 0.01 51 998.0
20260502123517 75 202 4.0 10.0 0.00 0.01 0.01 49 998.1
20260502122518 74 199 3.0 9.0 0.00 0.01 0.01 50 998.2
20260502121519 74 172 4.0 12.0 0.00 0.01 0.01 50 998.3
20260502120515 74 209 4.0 12.0 0.00 0.01 0.01 50 998.4
20260502115516 74 206 4.0 9.0 0.00 0.01 0.01 49 998.4
20260502114517 74 208 6.0 14.0 0.00 0.01 0.01 50 998.6
20260502113519 73 141 5.0 11.0 0.00 0.01 0.01 50 998.7
20260502112520 73 201 6.0 13.0 0.00 0.01 0.01 51 998.7
20260502111516 73 153 3.0 13.0 0.00 0.01 0.01 52 998.7
20260502110517 73 215 6.0 13.0 0.00 0.01 0.01 51 998.8
20260502105518 73 198 3.0 8.0 0.00 0.01 0.01 52 998.8
20260502104520 72 196 5.0 11.0 0.00 0.01 0.01 55 998.9
20260502103521 73 157 3.0 8.0 0.00 0.01 0.01 58 998.9
20260502102517 72 160 4.0 10.0 0.00 0.01 0.01 59 999.0
20260502101518 72 212 3.0 9.0 0.00 0.01 0.01 64 999.1
20260502100519 71 114 4.0 10.0 0.00 0.01 0.01 71 999.2
20260502091520 69 165 3.0 7.0 0.00 0.01 0.01 73 999.9
20260502090521 69 203 3.0 6.0 0.00 0.01 0.01 74 1000.0
20260502071518 59 33 1.0 2.0 0.00 0.01 0.01 94 1000.6
20260502070520 58 359 0.0 2.0 0.00 0.01 0.01 94 1000.7
20260502065516 57 0.0 0.0 0.00 0.01 0.01 95 1000.7
20260502064518 57 0.0 0.0 0.00 0.01 0.01 96 1000.7
20260502063519 56 0.0 0.0 0.00 0.01 0.01 97 1000.7
20260502062520 54 0.0 0.0 0.00 0.01 0.01 98 1000.7
20260502060517 52 0.0 0.0 0.00 0.01 0.01 97 1000.8
20260502055518 51 0.0 0.0 0.00 0.01 0.01 97 1000.8
20260502054540 51 0.0 0.0 0.00 0.01 0.01 97 1000.7
20260502053516 51 0.0 0.0 0.00 0.01 0.01 97 1000.8
20260502052517 50 0.0 0.0 0.00 0.01 0.01 97 1000.8
20260502051519 50 0.0 0.0 0.00 0.01 0.01 98 1000.8
20260502050520 48 0.0 0.0 0.01 0.01 0.01 97 1000.8
20260502045516 48 0.0 0.0 0.01 0.01 0.01 97 1000.9
20260502044517 48 0.0 0.0 0.01 0.01 0.01 97 1001.0
20260502043518 48 0.0 0.0 0.01 0.01 0.01 97 1001.0
20260502042519 49 0.0 0.0 0.01 0.01 0.01 97 1001.0
20260502041516 49 0.0 0.0 0.01 0.01 0.01 97 1001.1
20260502040517 49 0.0 0.0 0.00 0.00 0.00 97 1001.1
20260502035518 49 0.0 0.0 0.00 0.00 0.00 97 1001.1
20260502034519 49 0.0 0.0 0.00 0.00 0.00 97 1001.2
20260502033516 50 0.0 0.0 0.00 0.00 0.00 96 1001.2
20260502032517 50 0.0 0.0 0.00 0.00 0.00 96 1001.3
20260502031518 50 0.0 0.0 0.00 0.00 0.00 96 1001.3
20260502030519 51 0.0 0.0 0.00 0.00 0.00 96 1001.2
20260502025515 51 0.0 0.0 0.00 0.00 0.00 96 1001.2
20260502024517 52 0.0 0.0 0.00 0.00 0.00 96 1001.3
20260502023538 52 0.0 0.0 0.00 0.00 0.00 96 1001.3
20260502022519 52 0.0 0.0 0.00 0.00 0.00 96 1001.4
20260502021516 52 0.0 0.0 0.00 0.00 0.00 96 1001.4
20260502020516 53 0.0 0.0 0.00 0.00 0.00 96 1001.6
20260502015518 53 0.0 0.0 0.00 0.00 0.00 96 1001.8
20260502014519 54 0.0 0.0 0.00 0.00 0.00 96 1001.9
20260502013520 54 0.0 0.0 0.00 0.00 0.00 96 1001.9
20260502012516 54 0.0 0.0 0.00 0.00 0.00 96 1002.0
20260502010519 54 0.0 0.0 0.00 0.00 0.00 96 1002.1